SCP
1 1 1 1 1 1 1 1 1 1 1 1 2 1 1 1 1 1 1 1 1 2 2 3 3 3 3 3 3 3 3 2 2 2 2 2 2 2 2 2 2 2 2 3 3 3 3 3 3
1 1 1 1 1 1 1 1 1 1 1 1 1 1 1 1 1 1 1 1 1 1 2 2 3 3 3 3 3 3 3 2 2 2 2 2 2 2 2 2 2 3 3 3 3 3 3 3 3
1 1 1 1 2 2 1 1 1 1 1 1 1 1 1 1 1 1 1 1 1 1 1 2 2 3 3 3 3 3 3 2 2 2 2 2 2 2 2 3 3 3 4 4 4 3 3 3 3
1 1 2 2 3 2 2 2 3 2 2 2 2 1 1 1 1 1 1 1 1 1 1 1 2 2 2 2 2 2 2 2 2 2 2 2 2 2 3 3 4 4 4 5 5 4 4 3 3
1 2 2 3 3 2 2 3 3 3 2 2 2 2 1 1 1 1 1 1 1 1 1 1 2 2 2 2 2 2 2 2 2 2 2 2 2 3 3 4 4 4 4 4 5 4 4 3 2
1 2 2 2 2 1 1 3 3 2 1 2 2 2 1 2 2 1 1 1 1 1 1 1 1 2 2 2 2 2 1 1 2 2 2 3 3 2 3 3 3 3 3 3 3 3 2 2 2
2 2 2 2 2 1 1 2 2 2 1 2 2 2 1 2 2 1 1 1 1 1 1 1 1 1 1 2 2 1 1 1 2 2 2 2 2 1 1 2 2 2 1 1 2 2 2 2 2
2 2 2 2 2 1 1 2 2 1 2 3 3 2 2 1 2 2 1 1 1 1 1 1 1 1 1 1 1 1 1 2 2 2 2 2 1 1 1 1 1 1 1 1 1 2 2 2 2
2 2 2 2 2 2 2 1 1 1 2 3 4 3 2 1 2 2 2 2 2 1 1 1 1 1 1 1 1 1 2 4 4 3 1 1 1 1 1 1 1 1 1 1 1 2 2 2 2
1 1 1 1 1 1 2 1 1 1 2 3 3 3 2 2 2 2 2 2 2 2 1 1 1 1 1 1 2 3 4 6 4 2 1 1 0 0 0 1 1 1 1 1 1 2 2 2 2
1 1 1 1 1 1 1 1 1 2 2 2 2 2 1 2 2 2 2 2 2 2 2 2 2 2 2 2 3 5 7 7 3 1 0 0 0 0 0 0 1 1 1 1 1 2 2 2 2
1 1 1 1 1 1 1 1 1 2 2 2 2 1 1 1 2 2 2 1 1 2 2 2 2 2 3 3 4 6 8 7 3 1 0 0 0 0 0 0 0 1 1 1 1 1 1 1 1
0 1 1 1 1 1 1 1 1 2 2 2 2 1 1 1 1 1 1 1 1 2 2 2 2 3 3 3 4 6 8 7 4 1 0 0 0 0 0 0 0 0 1 1 1 1 1 1 1
0 0 0 0 1 1 1 1 1 2 2 2 1 1 1 1 1 1 1 1 2 2 1 1 2 3 4 4 4 4 6 6 4 1 0 0 0 0 0 1 0 0 1 1 1 1 1 1 1
0 0 0 0 1 1 1 1 1 2 2 2 2 2 1 1 1 1 1 1 2 2 1 2 3 4 5 5 4 3 4 3 2 1 0 0 0 0 1 1 1 1 1 1 1 1 0 0 0
0 0 0 0 0 1 1 1 2 2 3 2 2 2 2 2 1 1 2 2 2 2 2 2 4 5 6 6 5 3 2 2 1 1 0 0 0 1 1 1 1 1 0 0 0 0 0 0 0
0 0 0 0 0 1 1 1 2 2 3 2 2 3 3 2 1 2 2 2 2 2 3 3 5 6 6 7 5 3 2 1 1 1 0 0 0 1 1 1 1 1 0 0 0 0 0 0 0
0 0 0 0 0 1 1 1 1 2 2 2 2 3 2 2 2 2 2 2 2 3 3 4 5 5 5 5 4 3 2 1 1 1 1 0 0 1 1 1 1 0 0 0 0 0 0 0 0
0 0 0 1 1 1 1 1 1 1 2 2 2 2 2 2 2 2 3 3 3 3 4 4 4 4 3 3 3 3 2 1 1 1 1 1 1 1 1 1 0 0 0 0 0 0 0 0 0
0 0 1 1 1 1 1 1 1 2 2 2 3 2 2 2 2 2 3 3 4 4 4 4 3 3 2 2 2 2 2 1 1 1 1 1 1 1 1 1 0 0 0 0 0 0 0 0 0
0 1 1 1 1 0 1 1 1 2 3 3 3 3 3 3 3 3 3 4 4 5 4 4 3 3 2 2 2 2 2 2 1 1 1 1 1 1 1 1 0 0 0 0 0 0 0 0 0
0 1 1 1 0 0 0 0 1 2 3 3 3 3 4 4 4 3 3 4 5 5 4 4 3 3 3 2 2 2 2 2 1 1 1 1 1 1 1 1 1 0 0 0 0 0 0 1 1
0 0 0 0 0 0 0 0 1 1 2 2 3 4 4 5 4 4 4 5 5 5 4 4 3 3 3 3 3 2 2 2 2 2 2 1 1 1 1 1 1 1 0 0 0 0 0 0 1
0 0 0 0 0 0 0 1 1 1 1 2 3 4 5 5 4 4 5 6 7 6 5 5 4 4 4 3 3 2 3 3 2 2 2 1 1 1 1 1 1 1 0 0 0 0 0 0 1
0 0 0 0 0 0 0 1 1 1 1 3 4 5 4 4 4 5 5 7 8 8 6 6 5 5 5 4 3 3 3 3 2 2 1 1 1 1 1 1 1 1 1 0 0 0 0 1 1
0 0 0 0 0 0 0 0 1 1 2 4 6 5 4 3 4 5 6 7 8 7 6 6 6 5 4 4 4 4 3 3 2 2 1 1 1 1 1 1 1 1 1 1 1 1 1 1 1
0 0 0 0 0 0 0 0 1 1 3 5 6 5 4 4 3 4 6 7 7 6 5 5 5 4 4 4 4 4 3 2 2 1 1 1 1 1 1 1 1 1 1 1 1 1 1 1 1
0 0 0 0 0 0 0 0 1 1 3 4 5 6 6 4 3 4 6 6 5 4 4 4 4 4 4 4 4 4 3 2 2 2 2 2 2 1 1 2 1 1 1 1 1 1 1 1 1
0 0 0 0 0 0 0 0 1 2 2 3 4 5 5 5 4 5 5 5 4 4 4 4 4 4 4 4 4 4 4 3 2 2 2 2 2 2 2 2 2 1 1 1 2 2 2 1 1
0 0 0 0 0 0 0 0 1 2 2 3 4 5 5 5 5 5 5 4 4 4 5 4 4 4 4 4 5 5 4 3 2 2 2 2 2 2 2 2 2 2 1 1 2 2 1 1 1
Wind_Speed
9 6 3 1 1 2 1 1 3 4 5 6 9 10 8 6 4 5 3 9 11 9 7 9 12 11 11 11 11 10 11 11 11 11 11 11 11 11 11 11 11 11 11 11 11 10 10 10 11
6 5 2 0 2 2 1 1 5 6 8 9 11 10 8 7 7 9 6 10 12 10 6 8 12 11 11 11 10 10 10 10 10 10 10 10 10 10 10 10 10 10 10 10 10 10 9 9 9
6 4 1 1 1 2 2 3 7 8 8 8 7 7 6 6 8 6 8 13 11 8 6 8 13 12 11 11 10 10 10 9 9 9 9 9 9 9 9 10 9 9 10 10 9 9 8 8 8
2 1 1 1 1 2 3 4 8 9 8 8 9 7 5 5 6 10 14 13 11 8 6 8 13 12 11 11 10 10 9 9 9 9 9 8 8 9 9 9 8 8 8 8 8 8 7 7 8
1 1 2 1 2 1 2 5 7 8 6 8 10 8 5 4 13 15 14 13 11 8 5 7 12 12 11 11 10 9 9 9 9 8 8 7 7 8 8 8 7 7 8 8 7 7 6 6 7
1 1 1 1 1 1 2 6 9 11 11 10 10 8 4 6 13 13 12 10 10 9 6 6 11 12 11 11 10 9 8 8 8 8 8 7 6 7 7 7 7 6 7 7 7 6 6 6 7
2 1 1 1 0 2 4 5 9 10 10 7 8 7 4 6 9 11 10 10 8 8 6 4 5 7 10 11 10 9 8 8 8 7 7 7 6 6 6 6 6 6 6 5 6 6 6 6 6
3 2 1 1 2 2 3 5 8 10 8 9 7 8 6 7 9 10 9 8 8 6 5 4 4 3 4 5 9 8 7 7 7 7 6 6 6 5 6 5 6 6 5 4 5 6 5 5 5
1 2 1 3 3 2 4 8 6 7 9 6 5 7 11 13 12 11 9 7 6 6 4 4 4 4 3 4 6 6 6 5 5 4 5 4 2 2 3 4 6 6 5 5 5 6 6 5 4
3 2 5 4 3 5 6 8 7 7 8 7 10 11 13 13 12 11 10 8 7 6 6 4 5 5 4 4 3 2 2 2 1 1 1 1 1 2 2 4 6 6 6 5 5 6 5 4 2
4 4 4 3 3 5 6 5 5 10 7 10 15 14 13 12 11 10 10 9 8 8 7 6 5 5 4 2 3 2 1 1 1 1 1 1 1 0 0 0 1 2 3 2 2 2 1 1 2
2 5 4 2 2 4 4 4 6 7 8 13 16 16 13 12 11 10 10 8 7 7 7 6 6 5 5 4 3 2 2 1 1 2 2 1 1 1 1 0 0 0 1 1 1 1 2 2 3
3 4 3 3 2 4 5 6 7 7 11 13 14 13 12 12 10 9 9 8 7 7 7 7 6 5 4 4 3 3 2 2 2 1 1 2 1 1 1 1 0 0 0 1 2 1 1 2 2
3 3 3 1 3 4 7 5 6 7 11 13 12 10 10 11 11 9 8 7 7 8 7 7 6 5 5 4 3 3 2 2 2 1 1 2 1 1 1 1 1 0 0 1 1 2 1 1 1
1 1 2 1 2 3 7 3 4 9 11 12 11 10 10 10 11 11 10 9 9 8 7 7 7 6 5 4 4 3 2 2 2 2 1 2 2 1 2 1 1 0 0 1 1 1 1 1 1
1 1 1 3 3 3 6 3 5 8 10 10 10 10 9 8 10 10 10 9 8 7 7 7 7 6 5 4 3 2 3 3 2 2 1 1 2 2 2 1 1 1 1 1 1 1 1 1 1
1 1 3 3 3 3 5 4 6 7 9 9 9 9 10 9 8 9 10 10 9 8 8 6 6 6 5 4 3 3 3 3 2 2 1 1 2 2 2 1 1 1 2 2 1 1 1 1 1
4 3 2 3 3 3 3 4 6 7 9 9 9 8 8 9 9 9 10 10 9 8 8 7 6 6 5 4 3 2 2 2 2 2 2 2 1 2 2 2 1 2 2 2 2 2 1 1 0
4 2 3 4 3 3 3 3 5 6 7 7 7 8 8 9 7 8 9 10 8 7 7 7 6 6 5 3 3 3 2 1 1 1 2 2 2 2 2 2 2 2 2 1 1 1 2 1 1
1 1 2 2 1 3 3 1 2 3 7 9 11 10 9 7 6 7 8 8 9 9 8 7 7 7 6 4 3 3 3 2 2 1 1 2 2 2 3 2 2 2 2 2 2 1 1 1 1
3 4 4 2 1 3 3 2 2 3 2 5 7 8 8 9 9 8 8 8 8 8 9 8 7 7 6 5 3 3 2 2 1 1 1 1 1 2 2 2 2 2 2 1 1 1 2 1 1
4 4 3 1 2 1 1 1 5 3 2 4 6 6 7 7 8 8 8 9 9 9 8 7 7 7 6 6 5 5 4 3 3 2 2 2 2 2 2 2 2 2 1 1 0 1 1 2 1
5 3 3 2 3 1 2 2 5 2 3 5 6 8 9 9 10 9 9 10 9 8 7 6 6 6 6 6 6 6 4 3 2 2 2 2 1 2 2 2 2 2 1 1 1 1 1 1 1
3 3 3 3 4 1 4 2 5 4 7 6 5 7 8 8 8 8 8 7 6 6 6 6 6 5 6 6 6 6 6 5 4 3 3 2 1 1 1 2 2 2 1 1 1 1 2 1 1
3 5 3 5 4 4 3 2 6 6 5 6 6 6 5 6 6 7 7 7 7 7 7 6 7 6 6 6 6 6 6 6 6 5 4 3 1 1 1 1 1 1 1 1 1 1 1 1 1
4 9 8 5 4 4 2 3 5 4 4 4 5 6 6 7 7 7 8 8 8 8 8 7 7 6 6 7 6 5 5 5 4 4 4 4 3 2 2 2 1 1 1 1 1 1 0 1 0
3 3 8 7 3 1 3 3 5 2 1 3 5 5 7 7 6 6 6 6 6 7 7 7 7 7 7 7 6 5 5 5 5 4 4 3 2 2 2 2 1 1 1 1 1 1 0 0 0
6 6 5 5 4 2 3 3 4 4 3 3 5 5 6 6 6 5 6 6 5 6 6 6 7 8 7 7 6 6 5 5 5 5 4 4 3 3 3 2 2 1 1 1 1 1 0 0 1
1 2 4 4 5 6 3 6 6 8 6 5 6 6 6 6 7 7 7 6 6 5 5 6 6 5 6 6 6 5 4 4 4 4 4 4 3 3 3 3 3 2 1 1 1 1 1 0 1
5 5 7 5 3 4 4 7 4 6 6 5 4 3 4 6 6 6 6 6 5 5 5 6 6 6 6 6 6 5 5 4 4 3 3 4 3 3 3 3 3 3 2 1 2 1 1 1 1
Wind_Direction
168 166 165 186 45 43 55 111 113 81 66 69 89 94 91 76 113 138 150 139 137 141 146 139 132 130 126 120 115 111 109 110 111 114 115 115 118 123 126 127 130 130 132 134 135 136 136 137 139
159 166 179 51 67 71 27 118 99 96 118 107 87 88 83 72 90 114 124 143 140 142 145 142 136 134 131 126 122 118 115 114 116 117 119 120 121 122 128 129 130 133 134 135 138 141 142 141 144
168 189 182 50 102 152 155 123 112 109 114 104 93 73 78 105 117 129 145 144 138 141 146 149 141 138 135 131 127 125 121 118 120 122 122 125 128 128 130 134 134 138 140 141 144 147 147 147 149
163 157 33 56 239 213 159 139 123 111 88 83 96 79 68 107 123 135 141 141 137 141 148 150 143 141 140 135 131 130 125 122 123 125 125 125 131 134 134 136 140 143 146 148 150 155 157 160 159
104 79 37 332 249 238 165 148 133 111 102 97 99 99 81 82 119 132 140 141 139 142 147 149 144 142 141 138 135 133 126 125 126 127 127 127 133 141 145 146 151 152 153 158 162 166 166 170 172
96 91 50 276 213 175 136 124 107 103 108 105 102 103 91 118 128 139 138 139 141 144 145 148 146 142 141 141 139 137 132 130 133 134 133 133 133 143 152 156 156 161 165 162 168 170 173 178 180
146 107 228 251 127 112 125 123 115 120 123 123 124 104 109 129 140 139 137 133 137 141 140 141 151 151 149 147 146 142 139 139 139 140 140 140 140 141 152 157 157 157 158 163 174 180 185 186 186
180 115 281 257 136 110 125 116 120 122 119 128 123 123 150 158 143 128 126 127 131 136 141 140 143 147 151 152 151 148 146 144 144 147 146 148 150 153 161 168 170 168 170 177 185 189 194 198 198
144 80 247 211 155 149 131 109 109 108 115 126 115 129 146 142 134 123 120 120 130 137 145 146 145 143 149 151 155 151 149 154 152 158 156 156 166 180 176 183 185 187 188 196 198 197 202 207 207
135 152 227 221 173 160 144 130 132 109 103 97 102 115 131 133 135 135 137 140 142 152 160 163 158 157 156 159 140 135 140 143 140 156 176 155 181 206 191 203 198 200 199 203 207 206 208 208 193
169 197 239 248 188 150 137 134 122 120 123 140 140 142 143 139 141 145 146 152 156 159 163 168 166 162 161 153 144 146 139 142 151 169 175 158 168 215 206 200 216 215 208 207 208 211 215 197 184
184 244 239 244 176 136 136 123 116 131 152 151 147 149 149 149 153 158 154 155 150 144 153 157 159 158 161 151 152 151 153 161 169 177 162 136 120 140 167 130 122 214 203 182 174 192 208 206 212
208 247 259 221 169 139 121 127 128 133 140 143 143 147 154 155 157 160 156 154 146 145 150 150 151 153 149 140 149 147 164 172 173 154 149 136 131 153 150 165 119 186 176 167 175 180 190 194 207
224 233 271 244 149 138 123 131 117 152 144 143 148 152 155 156 155 149 153 157 154 153 155 152 146 145 137 137 140 143 154 154 138 127 137 136 137 145 128 119 112 137 209 181 166 164 170 184 186
189 307 323 270 159 148 110 81 146 166 151 151 155 156 155 160 158 156 163 162 161 158 154 154 150 144 140 140 143 137 139 135 132 136 140 123 122 128 120 94 75 73 139 128 124 121 118 144 144
23 29 271 264 190 165 119 173 188 168 154 156 160 160 157 167 169 165 161 158 157 153 153 157 152 148 146 141 139 130 133 135 138 140 131 118 108 113 109 81 40 21 56 65 99 102 111 111 115
358 225 235 267 215 163 141 180 188 175 154 156 163 165 164 174 177 170 163 161 160 156 156 157 149 152 152 142 135 134 132 133 138 135 130 125 110 112 109 84 38 49 62 46 77 84 99 93 77
253 241 242 233 230 149 154 181 183 179 160 161 166 166 164 173 184 175 167 162 161 158 157 156 150 155 149 137 120 111 111 124 133 142 150 147 129 113 108 94 62 76 73 46 45 67 56 85 98
218 225 241 236 225 134 159 160 184 168 159 167 171 172 176 182 182 172 166 160 157 156 156 158 155 161 153 147 145 135 138 147 143 159 154 144 138 126 112 94 68 75 88 86 69 73 55 28 56
198 245 268 273 240 134 125 150 220 184 183 181 178 177 180 178 172 171 167 165 165 165 164 164 166 166 164 165 159 149 143 145 152 157 135 137 130 129 122 114 103 93 85 62 52 66 66 11 48
251 201 217 209 22 57 86 355 312 264 197 180 182 179 178 178 179 175 171 170 170 171 174 174 173 168 167 154 134 121 96 80 87 113 141 150 143 122 111 119 116 109 107 96 52 69 102 81 1
259 221 177 145 88 318 116 236 284 254 241 207 199 188 187 183 177 175 174 172 176 182 179 173 171 166 165 155 151 153 154 165 185 169 156 152 155 142 130 128 120 117 111 106 62 88 104 103 29
224 195 146 166 139 78 355 133 276 280 240 241 222 196 191 185 176 172 178 178 179 180 176 174 166 166 164 160 160 159 159 163 147 132 136 149 158 149 144 132 118 113 113 107 70 62 73 97 111
158 67 39 42 73 54 255 165 261 244 220 223 220 194 187 174 172 175 179 167 172 175 171 168 161 170 170 165 164 163 163 158 146 148 156 164 151 133 148 127 126 126 125 129 119 92 82 78 78
86 89 32 359 6 255 253 179 241 241 220 205 195 177 172 164 167 177 176 170 173 175 178 176 171 174 173 167 170 167 165 159 163 166 167 163 159 166 186 153 145 150 149 142 122 89 76 77 75
208 144 157 192 221 266 302 230 250 243 223 200 172 161 157 172 178 180 183 179 178 178 176 177 171 171 173 168 167 162 157 159 162 163 161 168 174 180 175 158 156 163 158 147 131 109 125 90 80
183 196 167 144 166 178 258 270 297 329 83 138 142 147 156 177 170 176 176 171 173 174 176 172 165 167 172 166 154 150 158 156 158 159 157 167 174 171 168 159 140 135 148 153 139 133 231 80 118
165 162 98 113 153 220 270 251 232 240 203 163 161 163 171 167 156 163 168 171 179 172 166 165 165 171 168 164 165 163 165 164 161 159 165 173 177 174 166 162 157 148 140 151 148 151 202 123 285
114 106 117 130 155 158 221 262 221 207 196 187 194 180 173 166 167 169 170 178 177 163 157 157 160 157 159 165 164 163 165 166 163 167 176 179 178 174 172 174 169 168 180 180 163 180 151 147 301
167 177 145 147 219 161 164 258 260 202 192 179 181 169 168 163 166 164 160 164 166 163 164 163 160 160 166 163 158 167 160 156 160 176 181 173 177 180 177 174 175 184 190 199 196 209 196 192 247